This is the latest recevied weather packets stored in our database for station/object K2RMB. If no packets are shown the sender has not sent any weather packets the latest 10 day(s).
| Time | Temp. | Humidity | Pressure | Rain* | Wind** | Luminosity | Snow |
|---|---|---|---|---|---|---|---|
| 1777381127 | 16.11° C | 44% | 1021.6 hPa | 0 mm | - | 431 W/m² | - |
| 1777380824 | 15.56° C | 42% | 1021.6 hPa | 0 mm | - | 406 W/m² | - |
| 1777380522 | 15.56° C | 42% | 1021.6 hPa | 0 mm | - | 391 W/m² | - |
| 1777380218 | 15.56° C | 43% | 1021.9 hPa | 0 mm | - | 380 W/m² | - |
| 1777379914 | 15° C | 44% | 1021.9 hPa | 0 mm | - | 358 W/m² | - |
| 1777379609 | 15° C | 45% | 1021.9 hPa | 0 mm | - | 351 W/m² | - |
| 1777379306 | 15° C | 43% | 1021.9 hPa | 0 mm | - | 338 W/m² | - |
| 1777379006 | 15.56° C | 44% | 1022.4 hPa | 0 mm | - | 322 W/m² | - |
| 1777378702 | 14.44° C | 45% | 1022.4 hPa | 0 mm | - | 297 W/m² | - |
| 1777378399 | 13.89° C | 47% | 1022.4 hPa | 0 mm | - | 278 W/m² | - |
| 1777378093 | 13.89° C | 47% | 1022.7 hPa | 0 mm | - | 210 W/m² | - |
| 1777377788 | 13.89° C | 50% | 1022.7 hPa | 0 mm | - | 249 W/m² | - |
| 1777377482 | 13.33° C | 53% | 1022.4 hPa | 0 mm | - | 228 W/m² | - |
| 1777377178 | 12.78° C | 57% | 1022.4 hPa | 0 mm | - | 209 W/m² | - |
| 1777376876 | 12.22° C | 54% | 1022.4 hPa | 0 mm | - | 158 W/m² | - |
| 1777376573 | 12.22° C | 54% | 1021.9 hPa | 0 mm | - | 146 W/m² | - |
| 1777376269 | 11.11° C | 56% | 1022.4 hPa | 0 mm | - | 129 W/m² | - |
| 1777375964 | 10° C | 58% | 1022.4 hPa | 0 mm | - | 86 W/m² | - |
| 1777375659 | 9.44° C | 62% | 1022.4 hPa | 0 mm | - | 66 W/m² | - |
| 1777375359 | 8.89° C | 63% | 1022.4 hPa | 0 mm | - | 40 W/m² | - |
| 1777375056 | 8.89° C | 64% | 1022.4 hPa | 0 mm | - | 38 W/m² | - |
| 1777374751 | 8.33° C | 65% | 1021.9 hPa | 0 mm | - | 37 W/m² | - |
| 1777374447 | 7.78° C | 69% | 1021.9 hPa | 0 mm | - | 35 W/m² | - |
| 1777374146 | 7.78° C | 68% | 1021.9 hPa | 0 mm | - | 34 W/m² | - |
| 1777373846 | 7.78° C | 69% | 1022.4 hPa | 0 mm | - | 33 W/m² | - |
* Rain latest hour (hover to see other rain measurements)
** Current wind speed in m/s (hover to see current wind gust speed)